Overview Statistics Trail Chart Weather Telemetry Raw packets
 

This is the latest recevied weather packets stored in our database for station/object S57PNX-8. If no packets are shown the sender has not sent any weather packets the latest 10 day(s).

<< 31 32 33 34 35 36 37 >>
Time Temp. Humidity Pressure Rain* Wind** Luminosity Snow
1788009117 24.44° C 61% 1022.6 hPa - - - -
1788008218 24.44° C 61% 1022.6 hPa - - - -
1788007319 23.89° C 55% 1022.8 hPa - - - -
1788006420 23.89° C 59% 1022.9 hPa - - - -
1788005521 24.44° C 80% 1022.8 hPa - - - -
1788004622 24.44° C 89% 1022.8 hPa - - - -
1788003723 23.89° C 89% 1022.7 hPa - - - -
1788003314 23.89° C 89% 1022.8 hPa - - - -
1788002415 23.89° C 91% 1022.8 hPa - - - -
1788001513 23.89° C 94% 1022.9 hPa - - - -
1788000665 23.33° C 95% 1022.9 hPa - - - -
1788000614 23.33° C 95% 1022.9 hPa - - - -
1787999715 23.33° C 90% 1022.9 hPa - - - -
1787998856 23.33° C 87% 1023 hPa - - - -
1787998816 23.33° C 87% 1023 hPa - - - -
1787997917 23.33° C 83% 1022.9 hPa - - - -
1787997018 23.33° C 82% 1022.9 hPa - - - -
1787996119 23.33° C 89% 1022.8 hPa - - - -
1787995220 22.78° C 86% 1022.9 hPa - - - -
1787994356 22.78° C 89% 1023.1 hPa - - - -
1787994321 22.78° C 89% 1023.1 hPa - - - -
1787993422 22.22° C 92% 1023.1 hPa - - - -
1787992523 21.67° C 97% 1023 hPa - - - -
1787991624 21.67° C 99% 1022.9 hPa - - - -
1787990725 21.67° C 100% 1022.9 hPa - - - -

* Rain since midnight (hover to see other rain measurements)
** Current wind speed in m/s (hover to see current wind gust speed)